Showing default

KUIPER-00519, 68890

Orbit data source: Space-Track

KUIPER-00519, 68890 is an American payload satellite in LEO that was launched on Tue, 28 Apr 2026 UTC launched from the Air Force Eastern Test Range (AFETR). Payload-class satellites include a variety of spacecraft equipped with specific instruments for various scientific and technological missions. These include communications satellites like Starlink; space stations such as the ISS; scientific satellites like the Hubble; Earth observation satellites from companies like Planet Labs, Umbra, and HawkEye 360; GPS; miniature CubeSats for education and research; and military/defense satellites.

Loading next visibility...
Identifier
68890, 2026-095AC
Orbit
LEO
Country
Flag of USUS
Related business
None
Manufacturer
Unknown
Mission
Operational spacecraft
Bus & Motor
Unknown
Mass
Unknown
Launch date (UTC)
2026-04-28 (4 days ago)
Launch vehicle
Unknown
Launch site
Air Force Eastern Test Range (AFETR)
Object type
Payload
Rocket body
Debris
Shape & HBR
Unknown
Radar Cross Section
RCS unknown

Expand to show TLE details & history
Last TLE update: 8 hours ago

TLE from 8 hours ago
0 KUIPER-00519
1 68890U 26095AC  26122.16670139  .00001069  00000-0  38343-4 0  9990
2 68890  51.8823 104.8764 0002408  79.4528 136.3593 15.38152792  1373
Epoch: 2026-05-02T04:00Z
TLE epoch observation values (Epoch: 2026-05-02T04:00:03.000Z)
Latitude
-27.6226°
Longitude
28.87337°
Altitude
460.861 km
Speed
7.636 km/s
True Right ascension
20h 35m 53s
True Declination
-27° 28' 32"
Sunlit
Object was in daylight at epoch
Visualization orbit readout
Latitude
Unknown
Longitude
Unknown
Altitude
Unknown
Speed
Unknown
Apparent Right ascension
Unknown
Apparent Declination
Unknown
Sunlit
N/A
Visualization observer readout
Local Sidereal Time
19:28:42
Azimuth
Unknown
Elevation
Unknown
Doppler factor
Unknown
Orbital elements
Apogee altitude
453.682 km
Perigee altitude
450.393 km
Semi-major axis
6,830.174 km
Eccentricity
0.00024
Inclination
51.8823°
RAAN
104.8764°
Arg. of periapsis
79.4528°
True anomaly
136.37834°
Mean anomaly
136.3593°
Eccentric anomaly
136.36882°
Mean motion
3.84499 °/min
Orbital period
93.63 mins
BSTAR
0.000038343
Loading maneuver chart data...
Computing Atmospheric mass density...
Loading historical data...
Loading historical data...
Loading historical data...
Loading historical data...
Loading historical data...
Loading historical data...
Loading historical data...

Documentation

Showing up to 5 results
|